Time,TemperatureF,DewpointF,PressureIn,WindDirection,WindDirectionDegrees,WindSpeedMPH,WindSpeedGustMPH,Humidity,HourlyPrecipIn,Conditions,Clouds,dailyrainin,SoftwareType,DateUTC
2013-10-30 00:00:00,44.0,31.8,30.28,West,274,2.0,2.0,62,0.00,,,0.00,Wunderground v.1.15,2013-10-30 07:00:00,
2013-10-30 00:05:00,43.8,31.6,30.28,West,274,1.0,5.0,62,0.00,,,0.00,Wunderground v.1.15,2013-10-30 07:05:00,
2013-10-30 00:10:00,43.3,31.5,30.28,West,274,1.0,5.0,63,0.00,,,0.00,Wunderground v.1.15,2013-10-30 07:10:00,
2013-10-30 00:15:00,42.9,31.2,30.28,West,274,1.0,5.0,63,0.00,,,0.00,Wunderground v.1.15,2013-10-30 07:15:00,
2013-10-30 00:25:00,42.7,31.4,30.28,West,273,2.0,5.0,64,0.00,,,0.00,Wunderground v.1.15,2013-10-30 07:25:00,
2013-10-30 00:30:00,42.9,31.6,30.28,West,273,2.0,2.0,64,0.00,,,0.00,Wunderground v.1.15,2013-10-30 07:30:00,
2013-10-30 00:35:00,42.8,31.5,30.28,West,275,2.0,5.0,64,0.00,,,0.00,Wunderground v.1.15,2013-10-30 07:35:00,
2013-10-30 00:45:00,42.7,31.7,30.28,West,274,1.0,5.0,65,0.00,,,0.00,Wunderground v.1.15,2013-10-30 07:45:00,
2013-10-30 00:50:00,43.1,31.7,30.29,West,274,1.0,5.0,64,0.00,,,0.00,Wunderground v.1.15,2013-10-30 07:50:00,
2013-10-30 01:00:00,42.5,31.2,30.29,West,273,2.0,5.0,64,0.00,,,0.00,Wunderground v.1.15,2013-10-30 08:00:00,
2013-10-30 01:05:00,42.8,31.5,30.29,West,273,2.0,5.0,64,0.00,,,0.00,Wunderground v.1.15,2013-10-30 08:05:00,
2013-10-30 01:15:00,42.7,31.4,30.29,West,273,0.0,2.0,64,0.00,,,0.00,Wunderground v.1.15,2013-10-30 08:15:00,
2013-10-30 01:20:00,42.4,31.5,30.29,West,273,1.0,4.0,65,0.00,,,0.00,Wunderground v.1.15,2013-10-30 08:20:00,
2013-10-30 01:30:00,42.2,31.3,30.29,West,273,1.0,4.0,65,0.00,,,0.00,Wunderground v.1.15,2013-10-30 08:30:00,
2013-10-30 01:35:00,42.0,31.1,30.29,West,273,1.0,4.0,65,0.00,,,0.00,Wunderground v.1.15,2013-10-30 08:35:00,
2013-10-30 01:45:00,41.2,31.1,30.29,West,273,1.0,4.0,67,0.00,,,0.00,Wunderground v.1.15,2013-10-30 08:45:00,
2013-10-30 01:50:00,41.5,31.7,30.29,West,273,2.0,3.0,68,0.00,,,0.00,Wunderground v.1.15,2013-10-30 08:50:00,
2013-10-30 02:00:00,41.9,31.4,30.29,West,273,2.0,3.0,66,0.00,,,0.00,Wunderground v.1.15,2013-10-30 09:00:00,
2013-10-30 02:05:00,41.7,31.5,30.30,West,271,3.0,3.0,67,0.00,,,0.00,Wunderground v.1.15,2013-10-30 09:05:00,
2013-10-30 02:15:00,42.4,31.8,30.30,West,271,3.0,3.0,66,0.00,,,0.00,Wunderground v.1.15,2013-10-30 09:15:00,
2013-10-30 02:20:00,42.6,32.0,30.30,West,271,2.0,5.0,66,0.00,,,0.00,Wunderground v.1.15,2013-10-30 09:20:00,
2013-10-30 02:25:00,43.1,32.1,30.29,West,271,2.0,5.0,65,0.00,,,0.00,Wunderground v.1.15,2013-10-30 09:25:00,
2013-10-30 02:30:00,43.0,32.0,30.29,West,271,2.0,2.0,65,0.00,,,0.00,Wunderground v.1.15,2013-10-30 09:30:00,
2013-10-30 02:40:00,42.8,31.5,30.30,West,271,1.0,5.0,64,0.00,,,0.00,Wunderground v.1.15,2013-10-30 09:40:00,
2013-10-30 02:45:00,42.8,31.8,30.30,West,271,1.0,5.0,65,0.00,,,0.00,Wunderground v.1.15,2013-10-30 09:45:00,
2013-10-30 02:50:00,42.7,31.4,30.30,West,271,1.0,5.0,64,0.00,,,0.00,Wunderground v.1.15,2013-10-30 09:50:00,
2013-10-30 03:05:00,43.1,31.4,30.30,West,271,1.0,5.0,63,0.00,,,0.00,Wunderground v.1.15,2013-10-30 10:05:00,
2013-10-30 03:10:00,43.4,31.6,30.30,West,271,0.0,5.0,63,0.00,,,0.00,Wunderground v.1.15,2013-10-30 10:10:00,
2013-10-30 03:15:00,43.7,31.5,30.30,West,271,0.0,5.0,62,0.00,,,0.00,Wunderground v.1.15,2013-10-30 10:15:00,
2013-10-30 03:25:00,43.9,31.3,30.30,West,271,0.0,3.0,61,0.00,,,0.00,Wunderground v.1.15,2013-10-30 10:25:00,
2013-10-30 03:30:00,44.2,31.6,30.30,West,271,0.0,3.0,61,0.00,,,0.00,Wunderground v.1.15,2013-10-30 10:30:00,
2013-10-30 03:35:00,44.3,31.3,30.31,West,271,0.0,3.0,60,0.00,,,0.00,Wunderground v.1.15,2013-10-30 10:35:00,
2013-10-30 03:45:00,43.8,31.2,30.31,West,271,0.0,3.0,61,0.00,,,0.00,Wunderground v.1.15,2013-10-30 10:45:00,
2013-10-30 03:50:00,44.3,31.3,30.30,WNW,285,0.0,2.0,60,0.00,,,0.00,Wunderground v.1.15,2013-10-30 10:50:00,
2013-10-30 03:55:00,44.5,31.1,30.30,WNW,285,0.0,2.0,59,0.00,,,0.00,Wunderground v.1.15,2013-10-30 10:55:00,
2013-10-30 04:00:00,44.4,31.0,30.31,WNW,285,0.0,2.0,59,0.00,,,0.00,Wunderground v.1.15,2013-10-30 11:00:00,
2013-10-30 04:05:00,44.0,31.0,30.31,WNW,285,0.0,2.0,60,0.00,,,0.00,Wunderground v.1.15,2013-10-30 11:05:00,
2013-10-30 04:15:00,44.3,31.3,30.31,WNW,282,0.0,2.0,60,0.00,,,0.00,Wunderground v.1.15,2013-10-30 11:15:00,
2013-10-30 04:20:00,44.5,31.5,30.31,WNW,282,0.0,2.0,60,0.00,,,0.00,Wunderground v.1.15,2013-10-30 11:20:00,
2013-10-30 04:30:00,44.9,31.8,30.31,WNW,282,1.0,1.0,60,0.00,,,0.00,Wunderground v.1.15,2013-10-30 11:30:00,
2013-10-30 04:35:00,45.0,31.9,30.31,WNW,282,1.0,2.0,60,0.00,,,0.00,Wunderground v.1.15,2013-10-30 11:35:00,
2013-10-30 04:45:00,45.3,32.2,30.32,WSW,244,1.0,2.0,60,0.00,,,0.00,Wunderground v.1.15,2013-10-30 11:45:00,
2013-10-30 04:50:00,45.4,32.3,30.32,WSW,244,1.0,2.0,60,0.00,,,0.00,Wunderground v.1.15,2013-10-30 11:50:00,
2013-10-30 04:55:00,45.6,32.5,30.32,WSW,244,1.0,2.0,60,0.00,,,0.00,Wunderground v.1.15,2013-10-30 11:55:00,
2013-10-30 05:05:00,46.1,32.6,30.32,SW,226,1.0,2.0,59,0.00,,,0.00,Wunderground v.1.15,2013-10-30 12:05:00,
2013-10-30 05:15:00,46.1,32.1,30.32,SW,226,1.0,2.0,58,0.00,,,0.00,Wunderground v.1.15,2013-10-30 12:15:00,
2013-10-30 05:20:00,46.2,32.2,30.32,SW,226,1.0,1.0,58,0.00,,,0.00,Wunderground v.1.15,2013-10-30 12:20:00,
2013-10-30 05:25:00,46.2,32.2,30.32,SW,226,1.0,5.0,58,0.00,,,0.00,Wunderground v.1.15,2013-10-30 12:25:00,
2013-10-30 05:30:00,46.3,32.3,30.32,SW,226,0.0,5.0,58,0.00,,,0.00,Wunderground v.1.15,2013-10-30 12:30:00,
2013-10-30 05:40:00,46.5,32.1,30.33,SW,226,1.0,5.0,57,0.00,,,0.00,Wunderground v.1.15,2013-10-30 12:40:00,
2013-10-30 05:45:00,46.5,32.1,30.33,SSW,204,2.0,5.0,57,0.00,,,0.00,Wunderground v.1.15,2013-10-30 12:45:00,
2013-10-30 05:50:00,46.7,32.3,30.33,South,177,2.0,7.0,57,0.00,,,0.00,Wunderground v.1.15,2013-10-30 12:50:00,
2013-10-30 06:00:00,46.6,32.2,30.34,SSE,150,3.0,3.0,57,0.00,,,0.00,Wunderground v.1.15,2013-10-30 13:00:00,
2013-10-30 06:05:00,46.2,32.2,30.34,SE,140,3.0,3.0,58,0.00,,,0.00,Wunderground v.1.15,2013-10-30 13:05:00,
2013-10-30 06:15:00,46.7,32.3,30.34,ESE,105,4.0,5.0,57,0.00,,,0.00,Wunderground v.1.15,2013-10-30 13:15:00,
2013-10-30 06:20:00,46.7,32.3,30.34,ENE,74,5.0,11.0,57,0.00,,,0.00,Wunderground v.1.15,2013-10-30 13:20:00,
2013-10-30 06:30:00,46.8,32.4,30.34,East,89,4.0,4.0,57,0.00,,,0.00,Wunderground v.1.15,2013-10-30 13:30:00,
2013-10-30 06:35:00,46.7,32.3,30.34,East,89,3.0,11.0,57,0.00,,,0.00,Wunderground v.1.15,2013-10-30 13:35:00,
2013-10-30 06:40:00,46.4,32.0,30.34,ENE,75,2.0,11.0,57,0.00,,,0.00,Wunderground v.1.15,2013-10-30 13:40:00,
2013-10-30 06:50:00,46.1,32.1,30.35,ENE,75,2.0,2.0,58,0.00,,,0.00,Wunderground v.1.15,2013-10-30 13:50:00,
2013-10-30 06:55:00,46.0,32.0,30.35,ENE,77,3.0,4.0,58,0.00,,,0.00,Wunderground v.1.15,2013-10-30 13:55:00,
2013-10-30 07:00:00,46.3,32.3,30.35,East,84,4.0,12.0,58,0.00,,,0.00,Wunderground v.1.15,2013-10-30 14:00:00,
2013-10-30 07:10:00,46.0,32.0,30.35,East,84,3.0,12.0,58,0.00,,,0.00,Wunderground v.1.15,2013-10-30 14:10:00,
2013-10-30 07:15:00,45.9,31.9,30.36,East,84,3.0,12.0,58,0.00,,,0.00,Wunderground v.1.15,2013-10-30 14:15:00,
2013-10-30 07:20:00,45.7,31.8,30.36,East,84,2.0,9.0,58,0.00,,,0.00,Wunderground v.1.15,2013-10-30 14:20:00,
2013-10-30 07:30:00,45.6,31.7,30.36,East,84,1.0,1.0,58,0.00,,,0.00,Wunderground v.1.15,2013-10-30 14:30:00,
2013-10-30 07:35:00,45.7,31.8,30.36,East,84,0.0,9.0,58,0.00,,,0.00,Wunderground v.1.15,2013-10-30 14:35:00,
2013-10-30 07:45:00,46.0,32.0,30.36,East,84,1.0,9.0,58,0.00,,,0.00,Wunderground v.1.15,2013-10-30 14:45:00,
2013-10-30 07:50:00,46.2,31.8,30.36,East,84,2.0,6.0,57,0.00,,,0.00,Wunderground v.1.15,2013-10-30 14:50:00,
2013-10-30 08:00:00,46.8,31.9,30.37,East,84,2.0,6.0,56,0.00,,,0.00,Wunderground v.1.15,2013-10-30 15:00:00,
2013-10-30 08:05:00,47.1,31.7,30.37,East,89,2.0,6.0,55,0.00,,,0.00,Wunderground v.1.15,2013-10-30 15:05:00,
2013-10-30 08:15:00,47.5,31.7,30.38,ESE,123,3.0,6.0,54,0.00,,,0.00,Wunderground v.1.15,2013-10-30 15:15:00,
2013-10-30 08:20:00,47.6,31.3,30.38,SE,125,3.0,6.0,53,0.00,,,0.00,Wunderground v.1.15,2013-10-30 15:20:00,
2013-10-30 08:30:00,47.8,31.5,30.38,SE,139,4.0,4.0,53,0.00,,,0.00,Wunderground v.1.15,2013-10-30 15:30:00,
2013-10-30 08:40:00,48.2,31.4,30.38,SE,129,4.0,4.0,52,0.00,,,0.00,Wunderground v.1.15,2013-10-30 15:40:00,
2013-10-30 08:45:00,48.3,31.0,30.38,SE,131,4.0,6.0,51,0.00,,,0.00,Wunderground v.1.15,2013-10-30 15:45:00,
2013-10-30 08:50:00,48.5,31.2,30.38,SE,138,4.0,8.0,51,0.00,,,0.00,Wunderground v.1.15,2013-10-30 15:50:00,
2013-10-30 09:00:00,48.8,31.0,30.39,SSE,148,4.0,8.0,50,0.00,,,0.00,Wunderground v.1.15,2013-10-30 16:00:00,
2013-10-30 09:05:00,49.2,31.3,30.39,SSE,156,5.0,8.0,50,0.00,,,0.00,Wunderground v.1.15,2013-10-30 16:05:00,
2013-10-30 09:10:00,49.2,31.3,30.40,SSE,158,5.0,5.0,50,0.00,,,0.00,Wunderground v.1.15,2013-10-30 16:10:00,
2013-10-30 09:15:00,49.4,31.0,30.40,SSE,158,5.0,8.0,49,0.00,,,0.00,Wunderground v.1.15,2013-10-30 16:15:00,
2013-10-30 09:25:00,49.6,31.2,30.40,South,169,6.0,9.0,49,0.00,,,0.00,Wunderground v.1.15,2013-10-30 16:25:00,
2013-10-30 09:30:00,49.9,31.5,30.40,SSE,167,6.0,6.0,49,0.00,,,0.00,Wunderground v.1.15,2013-10-30 16:30:00,
2013-10-30 09:35:00,49.8,31.4,30.40,SSE,167,8.0,8.0,49,0.00,,,0.00,Wunderground v.1.15,2013-10-30 16:35:00,
2013-10-30 09:45:00,50.2,31.8,30.40,SE,142,7.0,9.0,49,0.00,,,0.00,Wunderground v.1.15,2013-10-30 16:45:00,
2013-10-30 09:50:00,50.2,31.8,30.40,SSE,149,8.0,13.0,49,0.00,,,0.00,Wunderground v.1.15,2013-10-30 16:50:00,
2013-10-30 09:55:00,50.4,31.4,30.40,SE,131,8.0,13.0,48,0.00,,,0.00,Wunderground v.1.15,2013-10-30 16:55:00,
2013-10-30 10:05:00,50.5,31.5,30.40,SSE,158,8.0,13.0,48,0.00,,,0.00,Wunderground v.1.15,2013-10-30 17:05:00,
2013-10-30 10:15:00,51.2,31.6,30.40,SE,126,9.0,13.0,47,0.00,,,0.00,Wunderground v.1.15,2013-10-30 17:15:00,
2013-10-30 10:20:00,51.3,31.7,30.40,SE,144,8.0,14.0,47,0.00,,,0.00,Wunderground v.1.15,2013-10-30 17:20:00,
2013-10-30 10:30:00,51.6,31.5,30.40,ESE,113,9.0,9.0,46,0.00,,,0.00,Wunderground v.1.15,2013-10-30 17:30:00,
2013-10-30 10:35:00,51.6,31.5,30.40,ESE,113,9.0,14.0,46,0.00,,,0.00,Wunderground v.1.15,2013-10-30 17:35:00,
2013-10-30 10:45:00,51.5,30.8,30.41,SE,127,9.0,14.0,45,0.00,,,0.00,Wunderground v.1.15,2013-10-30 17:45:00,
2013-10-30 10:50:00,51.8,31.1,30.41,SE,131,8.0,15.0,45,0.00,,,0.00,Wunderground v.1.15,2013-10-30 17:50:00,
2013-10-30 11:00:00,52.5,31.2,30.41,SSE,151,7.0,15.0,44,0.00,,,0.00,Wunderground v.1.15,2013-10-30 18:00:00,
2013-10-30 11:05:00,52.0,31.3,30.41,SSE,148,7.0,15.0,45,0.00,,,0.00,Wunderground v.1.15,2013-10-30 18:05:00,
2013-10-30 11:15:00,52.2,32.0,30.41,South,183,8.0,15.0,46,0.00,,,0.00,Wunderground v.1.15,2013-10-30 18:15:00,
2013-10-30 11:20:00,52.4,31.7,30.41,SSE,150,8.0,15.0,45,0.00,,,0.00,Wunderground v.1.15,2013-10-30 18:20:00,
2013-10-30 11:30:00,52.8,31.5,30.41,SE,146,9.0,9.0,44,0.00,,,0.00,Wunderground v.1.15,2013-10-30 18:30:00,
2013-10-30 11:35:00,52.8,32.0,30.40,SE,142,9.0,15.0,45,0.00,,,0.00,Wunderground v.1.15,2013-10-30 18:35:00,
2013-10-30 11:40:00,52.8,31.5,30.40,SE,140,8.0,15.0,44,0.00,,,0.00,Wunderground v.1.15,2013-10-30 18:40:00,
2013-10-30 11:45:00,53.2,31.8,30.40,ESE,118,7.0,15.0,44,0.00,,,0.00,Wunderground v.1.15,2013-10-30 18:45:00,
2013-10-30 11:50:00,53.4,31.4,30.40,ESE,110,7.0,16.0,43,0.00,,,0.00,Wunderground v.1.15,2013-10-30 18:50:00,
2013-10-30 12:00:00,53.6,31.0,30.40,South,173,8.0,8.0,42,0.00,,,0.00,Wunderground v.1.15,2013-10-30 19:00:00,
2013-10-30 12:10:00,53.9,31.9,30.39,SE,146,6.0,16.0,43,0.00,,,0.00,Wunderground v.1.15,2013-10-30 19:10:00,
2013-10-30 12:20:00,54.3,31.1,30.39,South,170,6.0,6.0,41,0.00,,,0.00,Wunderground v.1.15,2013-10-30 19:20:00,
2013-10-30 12:25:00,54.1,30.9,30.39,SSE,155,6.0,14.0,41,0.00,,,0.00,Wunderground v.1.15,2013-10-30 19:25:00,
2013-10-30 12:35:00,54.2,30.4,30.39,SSE,164,6.0,14.0,40,0.00,,,0.00,Wunderground v.1.15,2013-10-30 19:35:00,
2013-10-30 12:40:00,54.3,30.5,30.38,SSE,163,5.0,5.0,40,0.00,,,0.00,Wunderground v.1.15,2013-10-30 19:40:00,
2013-10-30 12:45:00,54.6,30.7,30.39,SSW,195,6.0,9.0,40,0.00,,,0.00,Wunderground v.1.15,2013-10-30 19:45:00,
2013-10-30 12:50:00,54.5,30.6,30.38,East,94,6.0,6.0,40,0.00,,,0.00,Wunderground v.1.15,2013-10-30 19:50:00,
2013-10-30 13:00:00,55.0,29.8,30.38,SSE,155,5.0,13.0,38,0.00,,,0.00,Wunderground v.1.15,2013-10-30 20:00:00,
2013-10-30 13:05:00,55.1,29.9,30.37,SSE,161,4.0,13.0,38,0.00,,,0.00,Wunderground v.1.15,2013-10-30 20:05:00,
2013-10-30 13:15:00,55.2,30.7,30.37,ESE,118,4.0,13.0,39,0.00,,,0.00,Wunderground v.1.15,2013-10-30 20:15:00,
2013-10-30 13:20:00,55.8,29.9,30.37,SE,132,4.0,13.0,37,0.00,,,0.00,Wunderground v.1.15,2013-10-30 20:20:00,
2013-10-30 13:30:00,56.1,30.2,30.37,SSE,151,6.0,13.0,37,0.00,,,0.00,Wunderground v.1.15,2013-10-30 20:30:00,
2013-10-30 13:35:00,56.3,29.7,30.37,SSE,154,6.0,13.0,36,0.00,,,0.00,Wunderground v.1.15,2013-10-30 20:35:00,
2013-10-30 13:40:00,56.2,30.2,30.36,ESE,105,5.0,13.0,37,0.00,,,0.00,Wunderground v.1.15,2013-10-30 20:40:00,
2013-10-30 13:50:00,56.5,29.1,30.36,SE,146,5.0,5.0,35,0.00,,,0.00,Wunderground v.1.15,2013-10-30 20:50:00,
2013-10-30 13:55:00,56.7,29.3,30.36,SE,145,5.0,8.0,35,0.00,,,0.00,Wunderground v.1.15,2013-10-30 20:55:00,
2013-10-30 14:05:00,56.3,30.3,30.35,SSE,160,6.0,13.0,37,0.00,,,0.00,Wunderground v.1.15,2013-10-30 21:05:00,
2013-10-30 14:10:00,56.6,29.2,30.35,East,94,6.0,13.0,35,0.00,,,0.00,Wunderground v.1.15,2013-10-30 21:10:00,
2013-10-30 14:15:00,56.8,29.4,30.35,ESE,123,6.0,13.0,35,0.00,,,0.00,Wunderground v.1.15,2013-10-30 21:15:00,
2013-10-30 14:25:00,56.8,29.4,30.36,SSE,156,4.0,13.0,35,0.00,,,0.00,Wunderground v.1.15,2013-10-30 21:25:00,
2013-10-30 14:30:00,56.9,29.5,30.36,SSE,159,4.0,13.0,35,0.00,,,0.00,Wunderground v.1.15,2013-10-30 21:30:00,
2013-10-30 14:35:00,57.0,30.3,30.35,SSE,161,3.0,13.0,36,0.00,,,0.00,Wunderground v.1.15,2013-10-30 21:35:00,
2013-10-30 14:45:00,57.3,29.9,30.35,SE,142,4.0,13.0,35,0.00,,,0.00,Wunderground v.1.15,2013-10-30 21:45:00,
2013-10-30 14:50:00,57.7,30.2,30.35,SSE,165,4.0,4.0,35,0.00,,,0.00,Wunderground v.1.15,2013-10-30 21:50:00,
2013-10-30 15:00:00,57.6,29.4,30.35,SE,142,4.0,4.0,34,0.00,,,0.00,Wunderground v.1.15,2013-10-30 22:00:00,
2013-10-30 15:05:00,57.7,29.5,30.35,SE,131,5.0,7.0,34,0.00,,,0.00,Wunderground v.1.15,2013-10-30 22:05:00,
2013-10-30 15:15:00,57.8,29.6,30.35,South,185,5.0,11.0,34,0.00,,,0.00,Wunderground v.1.15,2013-10-30 22:15:00,
2013-10-30 15:20:00,57.7,28.8,30.35,SE,136,4.0,12.0,33,0.00,,,0.00,Wunderground v.1.15,2013-10-30 22:20:00,
2013-10-30 15:25:00,57.6,28.7,30.35,SE,133,4.0,12.0,33,0.00,,,0.00,Wunderground v.1.15,2013-10-30 22:25:00,
2013-10-30 15:35:00,58.2,29.2,30.35,SE,144,4.0,12.0,33,0.00,,,0.00,Wunderground v.1.15,2013-10-30 22:35:00,
2013-10-30 15:40:00,58.3,28.5,30.35,SE,135,4.0,12.0,32,0.00,,,0.00,Wunderground v.1.15,2013-10-30 22:40:00,
2013-10-30 15:45:00,58.0,29.0,30.35,SSE,160,5.0,12.0,33,0.00,,,0.00,Wunderground v.1.15,2013-10-30 22:45:00,
2013-10-30 15:55:00,58.0,28.3,30.35,SSW,204,4.0,11.0,32,0.00,,,0.00,Wunderground v.1.15,2013-10-30 22:55:00,
2013-10-30 16:00:00,57.8,28.9,30.35,SSW,194,3.0,11.0,33,0.00,,,0.00,Wunderground v.1.15,2013-10-30 23:00:00,
2013-10-30 16:05:00,57.8,28.1,30.35,SSE,163,4.0,11.0,32,0.00,,,0.00,Wunderground v.1.15,2013-10-30 23:05:00,
2013-10-30 16:15:00,57.8,28.1,30.35,SSE,157,3.0,11.0,32,0.00,,,0.00,Wunderground v.1.15,2013-10-30 23:15:00,
2013-10-30 16:20:00,58.0,28.3,30.35,SSE,163,3.0,10.0,32,0.00,,,0.00,Wunderground v.1.15,2013-10-30 23:20:00,
2013-10-30 16:30:00,58.0,28.3,30.35,South,171,3.0,10.0,32,0.00,,,0.00,Wunderground v.1.15,2013-10-30 23:30:00,
2013-10-30 16:40:00,57.5,27.8,30.35,South,171,4.0,10.0,32,0.00,,,0.00,Wunderground v.1.15,2013-10-30 23:40:00,
2013-10-30 16:45:00,57.7,28.0,30.35,South,171,4.0,10.0,32,0.00,,,0.00,Wunderground v.1.15,2013-10-30 23:45:00,
2013-10-30 16:55:00,57.6,27.9,30.35,SSE,166,4.0,11.0,32,0.00,,,0.00,Wunderground v.1.15,2013-10-30 23:55:00,
2013-10-30 17:00:00,57.6,27.9,30.35,SSE,168,3.0,11.0,32,0.00,,,0.00,Wunderground v.1.15,2013-10-31 00:00:00,
2013-10-30 17:05:00,57.5,27.8,30.35,South,175,3.0,11.0,32,0.00,,,0.00,Wunderground v.1.15,2013-10-31 00:05:00,
2013-10-30 17:15:00,57.4,27.7,30.35,South,172,3.0,11.0,32,0.00,,,0.00,Wunderground v.1.15,2013-10-31 00:15:00,
2013-10-30 17:20:00,57.2,27.6,30.35,South,172,2.0,2.0,32,0.00,,,0.00,Wunderground v.1.15,2013-10-31 00:20:00,
2013-10-30 17:30:00,56.8,27.2,30.35,South,173,2.0,10.0,32,0.00,,,0.00,Wunderground v.1.15,2013-10-31 00:30:00,
2013-10-30 17:35:00,56.5,27.0,30.35,South,174,2.0,10.0,32,0.00,,,0.00,Wunderground v.1.15,2013-10-31 00:35:00,
2013-10-30 17:45:00,55.9,27.2,30.36,South,175,2.0,10.0,33,0.00,,,0.00,Wunderground v.1.15,2013-10-31 00:45:00,
2013-10-30 17:50:00,55.5,26.8,30.36,South,175,1.0,7.0,33,0.00,,,0.00,Wunderground v.1.15,2013-10-31 00:50:00,
2013-10-30 17:55:00,55.2,27.3,30.36,South,175,1.0,7.0,34,0.00,,,0.00,Wunderground v.1.15,2013-10-31 00:55:00,
2013-10-30 18:00:00,54.9,27.0,30.36,South,175,0.0,7.0,34,0.00,,,0.00,Wunderground v.1.15,2013-10-31 01:00:00,
2013-10-30 18:10:00,54.2,27.1,30.36,South,175,0.0,7.0,35,0.00,,,0.00,Wunderground v.1.15,2013-10-31 01:10:00,
2013-10-30 18:15:00,53.9,26.8,30.36,South,175,0.0,7.0,35,0.00,,,0.00,Wunderground v.1.15,2013-10-31 01:15:00,
2013-10-30 18:20:00,53.6,26.6,30.36,South,175,0.0,5.0,35,0.00,,,0.00,Wunderground v.1.15,2013-10-31 01:20:00,
2013-10-30 18:30:00,52.6,26.4,30.36,South,175,0.0,5.0,36,0.00,,,0.00,Wunderground v.1.15,2013-10-31 01:30:00,
2013-10-30 18:35:00,52.2,26.0,30.36,South,175,0.0,5.0,36,0.00,,,0.00,Wunderground v.1.15,2013-10-31 01:35:00,
2013-10-30 18:40:00,51.9,26.4,30.37,South,175,1.0,5.0,37,0.00,,,0.00,Wunderground v.1.15,2013-10-31 01:40:00,
2013-10-30 18:45:00,51.5,26.1,30.37,South,175,2.0,5.0,37,0.00,,,0.00,Wunderground v.1.15,2013-10-31 01:45:00,
2013-10-30 18:50:00,51.2,26.4,30.37,South,177,2.0,3.0,38,0.00,,,0.00,Wunderground v.1.15,2013-10-31 01:50:00,
2013-10-30 19:00:00,50.9,26.2,30.37,South,180,2.0,2.0,38,0.00,,,0.00,Wunderground v.1.15,2013-10-31 02:00:00,
2013-10-30 21:15:00,46.5,25.7,30.39,WSW,244,2.0,5.0,44,0.00,,,0.00,Wunderground v.1.15,2013-10-31 04:15:00,
2013-10-30 21:20:00,46.5,25.7,30.39,WSW,244,2.0,5.0,44,0.00,,,0.00,Wunderground v.1.15,2013-10-31 04:20:00,
2013-10-30 21:25:00,46.2,26.0,30.40,WSW,244,2.0,5.0,45,0.00,,,0.00,Wunderground v.1.15,2013-10-31 04:25:00,
2013-10-30 21:30:00,46.0,25.8,30.40,WSW,244,2.0,5.0,45,0.00,,,0.00,Wunderground v.1.15,2013-10-31 04:30:00,
2013-10-30 21:35:00,45.9,25.7,30.40,WSW,244,2.0,5.0,45,0.00,,,0.00,Wunderground v.1.15,2013-10-31 04:35:00,
2013-10-30 21:40:00,45.2,25.6,30.40,WSW,244,2.0,5.0,46,0.00,,,0.00,Wunderground v.1.15,2013-10-31 04:40:00,
2013-10-30 21:45:00,44.7,25.7,30.40,WSW,244,3.0,3.0,47,0.00,,,0.00,Wunderground v.1.15,2013-10-31 04:45:00,
2013-10-30 21:50:00,44.8,25.8,30.40,WSW,244,2.0,4.0,47,0.00,,,0.00,Wunderground v.1.15,2013-10-31 04:50:00,
2013-10-30 22:00:00,45.8,26.2,30.40,WSW,245,3.0,4.0,46,0.00,,,0.00,Wunderground v.1.15,2013-10-31 05:00:00,
2013-10-30 22:05:00,46.1,25.9,30.41,WSW,246,3.0,4.0,45,0.00,,,0.00,Wunderground v.1.15,2013-10-31 05:05:00,
2013-10-30 22:15:00,45.7,25.5,30.41,WSW,257,4.0,4.0,45,0.00,,,0.00,Wunderground v.1.15,2013-10-31 05:15:00,
2013-10-30 22:20:00,45.7,25.5,30.41,WSW,257,4.0,5.0,45,0.00,,,0.00,Wunderground v.1.15,2013-10-31 05:20:00,
2013-10-30 22:30:00,45.4,25.8,30.41,WSW,258,4.0,4.0,46,0.00,,,0.00,Wunderground v.1.15,2013-10-31 05:30:00,
2013-10-30 22:35:00,45.5,25.9,30.41,WSW,258,4.0,5.0,46,0.00,,,0.00,Wunderground v.1.15,2013-10-31 05:35:00,
2013-10-30 22:45:00,45.9,25.7,30.41,West,259,3.0,5.0,45,0.00,,,0.00,Wunderground v.1.15,2013-10-31 05:45:00,
2013-10-30 22:50:00,46.0,25.8,30.41,West,259,3.0,3.0,45,0.00,,,0.00,Wunderground v.1.15,2013-10-31 05:50:00,
2013-10-30 22:55:00,46.1,25.9,30.41,West,260,4.0,4.0,45,0.00,,,0.00,Wunderground v.1.15,2013-10-31 05:55:00,
2013-10-30 23:00:00,46.3,25.6,30.41,West,260,4.0,7.0,44,0.00,,,0.00,Wunderground v.1.15,2013-10-31 06:00:00,
2013-10-30 23:10:00,46.6,25.8,30.41,West,260,4.0,7.0,44,0.00,,,0.00,Wunderground v.1.15,2013-10-31 06:10:00,
2013-10-30 23:15:00,46.6,25.8,30.41,West,261,4.0,7.0,44,0.00,,,0.00,Wunderground v.1.15,2013-10-31 06:15:00,
2013-10-30 23:20:00,46.6,25.8,30.41,West,261,3.0,3.0,44,0.00,,,0.00,Wunderground v.1.15,2013-10-31 06:20:00,
2013-10-30 23:30:00,46.7,25.4,30.41,West,261,3.0,6.0,43,0.00,,,0.00,Wunderground v.1.15,2013-10-31 06:30:00,
2013-10-30 23:35:00,46.8,25.5,30.41,West,261,3.0,6.0,43,0.00,,,0.00,Wunderground v.1.15,2013-10-31 06:35:00,
2013-10-30 23:45:00,46.5,25.7,30.41,West,261,2.0,6.0,44,0.00,,,0.00,Wunderground v.1.15,2013-10-31 06:45:00,
2013-10-30 23:50:00,46.4,25.6,30.41,West,261,2.0,6.0,44,0.00,,,0.00,Wunderground v.1.15,2013-10-31 06:50:00,